Orangeburg, SC

12:58 PM EDT on April 30, 2017 (GMT -0400)
Orangeburg Municipal

Weather History for KOGB - March, 2013

Change the Weather History Date:

Sunday, March 3, 2013

  Actual Average Record
Temperature  
Mean Temperature 40 °F 53 °F  
Max Temperature 46 °F 65 °F 83 °F (1992)
Min Temperature 33 °F 41 °F 6 °F (1980)
Degree Days  
Heating Degree Days 25 12  
Month to date heating degree days 70 36  
Since 1 July heating degree days 1703 1968  
Cooling Degree Days 0 0  
Month to date cooling degree days 0 0  
Year to date cooling degree days 20 3  
Moisture  
Dew Point 25 °F    
Average Humidity 59    
Maximum Humidity 82    
Minimum Humidity 40    
Precipitation  
Precipitation 0.00 in 0.13 in 2.35 in (1991)
Month to date precipitation T 0.39  
Year to date precipitation 8.16 7.96  
Sea Level Pressure  
Sea Level Pressure 29.97 in    
Wind  
Wind Speed 6 mph (NW)    
Max Wind Speed 16 mph    
Max Gust Speed 22 mph    
Visibility 10 miles    
Events      
T = Trace of Precipitation, MM = Missing Value Source: NWS Daily Summary

Daily Weather History Graph

Daily Weather History Graph

Search for Another Location

Airport or City:

Trip Planner

Search our weather history database for the weather conditions in past years. The results will help you decide how hot, cold, wet, or windy it might be!

Date:

Astronomy

Mar. 03, 2013 Rise Set
Actual Time 6:48 AM EST 6:22 PM EST
Civil Twilight 6:24 AM EST 6:46 PM EST
Nautical Twilight 5:55 AM EST 7:15 PM EST
Astronomical Twilight 5:26 AM EST 7:44 PM EST
Moon No Moon Rise 10:22 AM EST (3/3)
Length of Visible Light 12h 22m
Length of Day
11h 33m
Waning Gibbous, 64% of the Moon is Illuminated
Mar 3
Waning Gibbous
Mar 4
Last Quarter
Mar 11
New
Mar 19
First Quarter
Mar 27
Full

Hourly Weather History & Observations

Time (EST) Temp. Windchill Dew Point Humidity Pressure Visibility Wind Dir Wind Speed Gust Speed Precip Events Conditions
12:53 AM 39.0 °F 34.8 °F 27.0 °F 62% 29.94 in 10.0 mi WNW 5.8 mph - N/A   Overcast
1:20 AM 39.2 °F 35.0 °F 28.4 °F 65% 29.94 in 10.0 mi WNW 5.8 mph - N/A   Overcast
1:53 AM 37.9 °F 35.5 °F 28.0 °F 68% 29.94 in 10.0 mi WNW 3.5 mph - N/A   Overcast
2:53 AM 36.0 °F 33.3 °F 28.0 °F 73% 29.93 in 10.0 mi WNW 3.5 mph - N/A   Mostly Cloudy
3:53 AM 33.1 °F - 28.0 °F 82% 29.93 in 10.0 mi Calm Calm - N/A   Clear
4:13 AM 33.8 °F 30.8 °F 30.2 °F 87% 29.93 in 10.0 mi WNW 3.5 mph - N/A   Mostly Cloudy
4:53 AM 35.1 °F 30.1 °F 30.0 °F 82% 29.94 in 10.0 mi NE 5.8 mph - N/A   Mostly Cloudy
5:02 AM 35.6 °F 29.2 °F 28.4 °F 75% 29.94 in 10.0 mi NE 8.1 mph - N/A   Scattered Clouds
5:53 AM 35.1 °F 31.0 °F 24.1 °F 64% 29.96 in 10.0 mi NNE 4.6 mph - N/A   Scattered Clouds
6:53 AM 35.1 °F 30.1 °F 25.0 °F 67% 29.97 in 10.0 mi NNE 5.8 mph - N/A   Mostly Cloudy
7:53 AM 37.9 °F 33.5 °F 24.1 °F 57% 29.99 in 10.0 mi NNE 5.8 mph - N/A   Mostly Cloudy
8:53 AM 37.9 °F 32.7 °F 21.0 °F 51% 30.00 in 10.0 mi NNE 6.9 mph - N/A   Overcast
9:53 AM 39.9 °F 35.1 °F 21.0 °F 47% 30.00 in 10.0 mi North 6.9 mph - N/A   Overcast
10:53 AM 41.0 °F 36.4 °F 21.0 °F 45% 30.00 in 10.0 mi NNW 6.9 mph - N/A   Overcast
11:53 AM 43.0 °F 38.8 °F 21.0 °F 42% 29.99 in 10.0 mi NW 6.9 mph - N/A   Overcast
12:53 PM 44.1 °F 38.6 °F 21.9 °F 42% 29.97 in 10.0 mi WNW 10.4 mph - N/A   Overcast
1:53 PM 45.0 °F 38.9 °F 21.9 °F 40% 29.95 in 10.0 mi West 12.7 mph - N/A   Overcast
2:53 PM 44.1 °F 39.0 °F 23.0 °F 43% 29.94 in 10.0 mi West 9.2 mph - N/A   Overcast
3:53 PM 44.1 °F 38.1 °F 23.0 °F 43% 29.94 in 10.0 mi West 11.5 mph 18.4 mph N/A   Overcast
4:53 PM 44.1 °F 40.8 °F 21.9 °F 42% 29.94 in 10.0 mi WNW 5.8 mph - N/A   Scattered Clouds
5:53 PM 45.0 °F 41.8 °F 21.9 °F 40% 29.94 in 10.0 mi WNW 5.8 mph - N/A   Clear
6:53 PM 39.0 °F - 24.1 °F 55% 29.96 in 10.0 mi Calm Calm - N/A   Clear
7:53 PM 35.1 °F - 27.0 °F 72% 29.98 in 10.0 mi Calm Calm - N/A   Clear
8:53 PM 35.1 °F 32.2 °F 26.1 °F 70% 30.00 in 10.0 mi SSW 3.5 mph - N/A   Clear
9:53 PM 37.0 °F 30.4 °F 25.0 °F 62% 30.01 in 10.0 mi West 9.2 mph - N/A   Clear
10:53 PM 36.0 °F 29.6 °F 25.0 °F 64% 30.02 in 10.0 mi West 8.1 mph - N/A   Clear
11:53 PM 36.0 °F 30.3 °F 23.0 °F 59% 30.03 in 10.0 mi WNW 6.9 mph - N/A   Clear